Regional Weather Roundup
Issued by NWS

Home | Current Version | Previous Version | Text Only | Print | Product List | Glossary On
Versions: 1 2 3 4 5 6 7 8 9 10 11 12 13 14 15 16 17 18 19 20 21 22 23 24 25 26 27 28 29 30 31 32 33 34 35 36 37 38 39 40 41 42 43 44 45 46 47 48 49 50
000
ASUS43 KLMK 020510
RWRKY
KENTUCKY REGIONAL WEATHER ROUNDUP
NATIONAL WEATHER SERVICE LOUISVILLE KY
100 AM EDT WED SEP 02 2015

NOTE "FAIR" INDICATES FEW OR NO CLOUDS BELOW 12,000 FEET
WITH NO SIGNIFICANT WEATHER AND/OR OBSTRUCTIONS TO VISIBILITY.

KYZ001>023-026-027-061>063-070>075-020600-
WESTERN AND SOUTH CENTRAL KENTUCKY

CITY           SKY/WX    TMP DP  RH WIND       PRES   REMARKS
PADUCAH        PTCLDY    70  68  93 CALM      30.09F FOG
HENDERSON      NOT AVBL
OWENSBORO      PTCLDY    74  70  87 CALM      30.11S
HOPKINSVILLE   PTCLDY    74  69  84 N3        30.11S
BOWLING GREEN  CLEAR     72  68  87 CALM      30.12S
GLASGOW        CLEAR     69  69 100 CALM      30.13S
$$

KYZ024-025-028>034-038-045-046-053-020600-
NORTH CENTRAL KENTUCKY

CITY           SKY/WX    TMP DP  RH WIND       PRES   REMARKS
LOUISVILLE/SDF CLEAR     78  67  68 CALM      30.11R
LOUISVILLE/LOU CLEAR     73  71  93 CALM      30.12S
FORT KNOX      CLEAR     67  65  92 CALM      30.11S
$$

KYZ035>037-039>044-047>052-055>060-089>105-020600-
NORTHEAST KENTUCKY

CITY           SKY/WX    TMP DP  RH WIND       PRES   REMARKS
LEXINGTON      CLEAR     71  65  81 CALM      30.14S
COVINGTON      PTCLDY    73  67  81 SW5       30.13R
FRANKFORT      CLEAR     69  66  90 CALM      30.12S
$$

KYZ054-064>069-076>088-106>120-020600-
SOUTHEAST KENTUCKY

CITY           SKY/WX    TMP DP  RH WIND       PRES   REMARKS
JACKSON        CLEAR     72  65  78 CALM      30.15S
LONDON         CLEAR     70  65  84 CALM      30.15S
SOMERSET       CLEAR     66  66 100 CALM      30.15S
MIDDLESBORO    CLEAR     67  67  99 CALM      30.16S
MONTICELLO     CLEAR     65  65 100 CALM      30.17R FOG
$$



USA.gov is the U.S. government's official web portal to all federal, state and local government web resources and services.